Location: Newark
(30.0333°N, 31.2167°E)
Time: 18:11:05
(UTC+00:00)

Tiros 1 despin weight - Pass Details

Date: 23 January 2020
Orbit: 594 x 642 km, 48.2° (Epoch: 27 February)

Event Time Altitude Azimuth Distance (km) Brightness Sun altitude
Rises 07:26:08 0° 186° (S) 2,825 ? 27.1°
Reaches altitude 10° 07:29:17 10° 162° (SSE) 1,935 ? 27.6°
Maximum altitude 07:31:47 15° 128° (SE) 1,651 ? 28.0°
Drops below altitude 10° 07:34:17 10° 93° (E) 1,956 ? 28.3°
Sets 07:37:29 0° 70° (ENE) 2,876 ? 28.8°
